Home   Weather   Cúcuta   Past weeks

Flag for Colombia Past Weather in Cúcuta, Colombia — Yesterday and Last 2 Weeks

Now
91 °F

Scattered clouds.


Feels Like: 99 °F
Forecast: 74 / 98 °F
Wind: 16 mph from Northeast

Location: Cucuta / Camilo Daza

Current Time: Aug 18, 2017 at 1:28:31 pm

Latest Report: Aug 18, 2017 at 1:00 pm


Visibility: N/A

Pressure: 29.79 "Hg

Humidity: 52%

Dew Point: 72 °F

Location of CúcutaLocation

Past Weather in Cúcuta — Graph

°F

Cúcuta Temperature Yesterday

Maximum temperature yesterday: 97 °F (at 1:00 pm)
Minimum temperature yesterday: 73 °F (at 5:00 am)
Average temperature yesterday: 84 °F

High & Low Weather Summary for the Past Weeks

 TemperatureHumidityPressure
High97 °F (Aug 7, 1:00 pm)94% (Aug 10, 9:00 pm)30.00 "Hg (Aug 10, 9:00 pm)
Low73 °F (Aug 10, 5:30 am)30% (Aug 6, 2:00 pm)29.74 "Hg (Aug 15, 4:00 pm)
Average84 °F60%29.88 "Hg
* Reported Aug 3 12:00 pm — Aug 18 12:00 pm, Cúcuta. Weather by CustomWeather, © 2017

Note: Actual official high and low records may vary slightly from our data, if they occured in-between our weather recording intervals... More about our weather records

Advertising

Cúcuta Weather History for the Previous 24 Hours

Scroll right to see more
 ConditionsComfort  
Time TempWeatherWind HumidityBarometerVisibility
12:00 pm
Fri, Aug 18
90 °FScattered clouds.13 mph55%29.82 "HgN/A
11:00 am88 °FScattered clouds.9 mph59%29.85 "HgN/A
10:00 am86 °FScattered clouds.12 mph66%29.86 "HgN/A
9:00 am82 °FScattered clouds.7 mph79%29.87 "HgN/A
8:00 am84 °FScattered clouds.9 mph62%29.87 "HgN/A
7:00 am81 °FScattered clouds.14 mph74%29.85 "HgN/A
6:00 am77 °FScattered clouds.2 mph94%29.85 "HgN/A
5:30 am77 °FPassing clouds.5 mph94%29.85 "Hg5 mi
5:00 am77 °FPassing clouds.5 mph94%29.85 "Hg5 mi
3:00 am77 °FPassing clouds.No wind94%29.85 "HgN/A
2:00 am77 °FPassing clouds.5 mph94%29.83 "HgN/A
1:00 am77 °FThunderstorms. Passing clouds.8 mph94%29.85 "HgN/A
12:00 am81 °FThunderstorms. Passing clouds.10 mph79%29.88 "HgN/A
11:00 pm
Thu, Aug 17
84 °FPassing clouds.3 mph70%29.88 "HgN/A
10:00 pm82 °FPassing clouds.2 mph74%29.87 "HgN/A
9:00 pm82 °FPassing clouds.2 mph74%29.86 "HgN/A
8:00 pm84 °FPassing clouds.2 mph70%29.84 "HgN/A
7:00 pm86 °FPassing clouds.5 mph66%29.81 "HgN/A
6:00 pm86 °FScattered clouds.9 mph66%29.77 "HgN/A
5:00 pm90 °FScattered clouds.13 mph55%29.75 "HgN/A
4:00 pm91 °FScattered clouds.13 mph49%29.74 "HgN/A
3:00 pm91 °FScattered clouds.15 mph52%29.74 "HgN/A
2:00 pm95 °FScattered clouds.8 mph47%29.75 "HgN/A
1:00 pm97 °FScattered clouds.18 mph37%29.77 "HgN/A
Weather by CustomWeather, © 2017

See weather overviewHow to use our weather pages